Location: Carnières
(50.1682°N, 3.3474°E)
Time: 03:19:44
(UTC+00:00)

GP-B - Pass Details

Date: 23 May 2024
Orbit: 624 x 629 km, 89.8° (Epoch: 17 June)

Event Time Altitude Azimuth Distance (km) Brightness Sun altitude
Rises 00:26:54 0° 356° (N) 2,925 8.0 -18.5°
Reaches altitude 10° 00:29:10 10° 351° (N) 2,013 6.7 -18.5°
Maximum altitude 00:33:24 47° 278° (W) 840 3.6 -18.3°
Enters shadow 00:34:54 33° 228° (SW) 1,059 3.8 -18.3°
